Owatonna, MN

8:11 PM CDT on July 23, 2017 (GMT -0500)
Owatonna Degner Regional

Weather History for KOWA - January, 2013

Change the Weather History Date:

Wednesday, January 23, 2013

  Actual Average Record
Temperature  
Mean Temperature 10 °F -  
Max Temperature 19 °F 26 °F 53 °F (1981)
Min Temperature 0 °F 5 °F -25 °F (1963)
Degree Days  
Heating Degree Days 55    
Moisture  
Dew Point -1 °F    
Average Humidity 57    
Maximum Humidity 79    
Minimum Humidity 39    
Precipitation  
Precipitation 0.00 in - - ()
Sea Level Pressure  
Sea Level Pressure 30.23 in    
Wind  
Wind Speed 10 mph (WNW)    
Max Wind Speed 26 mph    
Max Gust Speed 34 mph    
Visibility 8 miles    
Events Snow    
Averages and records for this station are not official NWS values.
T = Trace of Precipitation, MM = Missing Value Source: NWS Daily Summary

Daily Weather History Graph

Daily Weather History Graph

Search for Another Location

Airport or City:

Trip Planner

Search our weather history database for the weather conditions in past years. The results will help you decide how hot, cold, wet, or windy it might be!

Date:

Astronomy

Jan. 23, 2013 Rise Set
Actual Time 7:39 AM CST 5:11 PM CST
Civil Twilight 7:07 AM CST 5:42 PM CST
Nautical Twilight 6:32 AM CST 6:17 PM CST
Astronomical Twilight 5:58 AM CST 6:52 PM CST
Moon 2:20 PM CST (1/23) 4:53 AM CST (1/23)
Length of Visible Light 10h 34m
Length of Day
9h 31m
Waxing Gibbous, 89% of the Moon is Illuminated
Jan 23
Waxing Gibbous
Jan 26
Full
Feb 3
Last Quarter
Feb 10
New
Feb 17
First Quarter

Hourly Weather History & Observations

Time (CST) Temp. Windchill Dew Point Humidity Pressure Visibility Wind Dir Wind Speed Gust Speed Precip Events Conditions
12:14 AM 12.2 °F 4.3 °F -2.2 °F 53% 30.19 in 10.0 mi South 4.6 mph - N/A   Overcast
12:34 AM 12.2 °F 2.9 °F -2.2 °F 53% 30.19 in 10.0 mi South 5.8 mph - N/A   Overcast
12:54 AM 12.2 °F 6.1 °F -0.4 °F 57% 30.18 in 10.0 mi South 3.5 mph - N/A   Overcast
1:14 AM 12.2 °F 4.3 °F -0.4 °F 57% 30.17 in 10.0 mi South 4.6 mph - N/A   Overcast
1:34 AM 12.2 °F 4.3 °F -0.4 °F 57% 30.17 in 10.0 mi South 4.6 mph - N/A   Overcast
1:54 AM 12.2 °F 4.3 °F 1.4 °F 62% 30.16 in 10.0 mi South 4.6 mph - N/A   Overcast
2:14 AM 12.2 °F 4.3 °F 1.4 °F 62% 30.16 in 10.0 mi South 4.6 mph - N/A   Overcast
2:34 AM 14.0 °F 6.5 °F 3.2 °F 62% 30.16 in 10.0 mi South 4.6 mph - N/A   Overcast
2:54 AM 14.0 °F 5.1 °F 3.2 °F 62% 30.16 in 10.0 mi South 5.8 mph - N/A Snow Light Snow
3:14 AM 14.0 °F 5.1 °F 5.0 °F 67% 30.14 in 5.0 mi South 5.8 mph - N/A Snow Light Snow
3:34 AM 15.8 °F 6.1 °F 6.8 °F 68% 30.14 in 4.0 mi SSW 6.9 mph - N/A Snow Light Snow
3:54 AM 15.8 °F 6.1 °F 6.8 °F 68% 30.13 in 4.0 mi SSW 6.9 mph - N/A Snow Light Snow
4:14 AM 15.8 °F 6.1 °F 6.8 °F 68% 30.12 in 3.0 mi SSW 6.9 mph - N/A Snow Light Snow
4:34 AM 15.8 °F 10.2 °F 6.8 °F 68% 30.12 in 4.0 mi SSW 3.5 mph - N/A Snow Light Snow
4:54 AM 15.8 °F - 6.8 °F 68% 30.12 in 2.5 mi Calm Calm - N/A Snow Light Snow
5:14 AM 15.8 °F - 6.8 °F 68% 30.11 in 1.2 mi Calm Calm - N/A Snow Light Snow
5:34 AM 15.8 °F 7.2 °F 6.8 °F 68% 30.11 in 2.0 mi SSW 5.8 mph - N/A Snow Light Snow
5:54 AM 15.8 °F 6.1 °F 6.8 °F 68% 30.11 in 4.0 mi SSW 6.9 mph - N/A Snow Light Snow
6:15 AM 15.8 °F 6.1 °F 6.8 °F 68% 30.11 in 7.0 mi SSW 6.9 mph - N/A Snow Light Snow
6:34 AM 15.8 °F 8.6 °F 6.8 °F 68% 30.11 in 7.0 mi SSW 4.6 mph - N/A Snow Light Snow
6:54 AM 15.8 °F 8.6 °F 6.8 °F 68% 30.11 in 7.0 mi SSW 4.6 mph - N/A Snow Light Snow
7:14 AM 15.8 °F 10.2 °F 6.8 °F 68% 30.10 in 7.0 mi SW 3.5 mph - N/A Snow Light Snow
7:34 AM 15.8 °F 10.2 °F 6.8 °F 68% 30.10 in 5.0 mi SSW 3.5 mph - N/A Snow Light Snow
7:54 AM 14.0 °F 8.2 °F 6.8 °F 73% 30.11 in 3.0 mi SW 3.5 mph - N/A Snow Light Snow
8:14 AM 14.0 °F 6.5 °F 6.8 °F 73% 30.12 in 7.0 mi WSW 4.6 mph - N/A Snow Light Snow
8:34 AM 12.2 °F 6.1 °F 6.8 °F 79% 30.12 in 5.0 mi West 3.5 mph - N/A Snow Light Snow
8:54 AM 12.2 °F 2.9 °F 6.8 °F 79% 30.12 in 7.0 mi West 5.8 mph - N/A   Mostly Cloudy
9:14 AM 14.0 °F 3.9 °F 6.8 °F 73% 30.12 in 10.0 mi West 6.9 mph - N/A Snow Light Snow
9:34 AM 15.8 °F 4.2 °F 8.6 °F 73% 30.13 in 10.0 mi West 9.2 mph - N/A   Clear
9:54 AM 15.8 °F 2.1 °F 8.6 °F 73% 30.13 in 10.0 mi WNW 12.7 mph - N/A   Clear
10:14 AM 15.8 °F 0.9 °F 8.6 °F 73% 30.14 in 10.0 mi WNW 15.0 mph - N/A Snow Light Snow
10:34 AM 17.6 °F 3.2 °F 8.6 °F 68% 30.16 in 10.0 mi WNW 15.0 mph - N/A   Scattered Clouds
10:54 AM 17.6 °F 3.2 °F 6.8 °F 63% 30.16 in 10.0 mi NW 15.0 mph 19.6 mph N/A   Mostly Cloudy
11:14 AM 17.6 °F 3.7 °F 6.8 °F 63% 30.16 in 10.0 mi WNW 13.8 mph - N/A   Mostly Cloudy
11:34 AM 17.6 °F 1.3 °F 6.8 °F 63% 30.15 in 10.0 mi NW 19.6 mph - N/A   Scattered Clouds
11:54 AM 17.6 °F 3.7 °F 6.8 °F 63% 30.15 in 10.0 mi West 13.8 mph 19.6 mph N/A   Mostly Cloudy
12:14 PM 17.6 °F 1.3 °F 6.8 °F 63% 30.14 in 10.0 mi WNW 19.6 mph 23.0 mph N/A   Scattered Clouds
12:34 PM 19.4 °F 4.1 °F 8.6 °F 63% 30.14 in 10.0 mi WNW 18.4 mph 25.3 mph N/A   Mostly Cloudy
12:54 PM 17.6 °F 0.9 °F 6.8 °F 63% 30.14 in 7.0 mi West 20.7 mph 28.8 mph N/A   Overcast
1:14 PM 17.6 °F 1.3 °F 6.8 °F 63% 30.14 in 4.0 mi WNW 19.6 mph 25.3 mph N/A   Haze
1:34 PM 17.6 °F 2.2 °F 6.8 °F 63% 30.14 in 5.0 mi WNW 17.3 mph 21.9 mph N/A   Haze
1:54 PM 17.6 °F 0.9 °F 6.8 °F 63% 30.15 in 7.0 mi WNW 20.7 mph 27.6 mph N/A   Mostly Cloudy
2:14 PM 17.6 °F 0.5 °F 3.2 °F 53% 30.16 in 7.0 mi West 21.9 mph 28.8 mph N/A   Mostly Cloudy
2:34 PM 17.6 °F -0.3 °F 5.0 °F 58% 30.17 in 4.0 mi WNW 24.2 mph 28.8 mph N/A   Haze
2:54 PM 17.6 °F 0.9 °F 6.8 °F 63% 30.19 in 4.0 mi WNW 20.7 mph 26.5 mph N/A   Haze
3:14 PM 15.8 °F -3.4 °F -0.4 °F 49% 30.21 in 10.0 mi NW 26.5 mph 34.5 mph N/A   Scattered Clouds
3:34 PM 15.8 °F -3.1 °F -2.2 °F 45% 30.22 in 10.0 mi NW 25.3 mph 33.4 mph N/A   Clear
3:54 PM 15.8 °F -2.7 °F -2.2 °F 45% 30.23 in 10.0 mi NW 24.2 mph 31.1 mph N/A   Clear
4:14 PM 12.2 °F -8.2 °F -4.0 °F 48% 30.24 in 10.0 mi NW 26.5 mph 33.4 mph N/A   Clear
4:34 PM 12.2 °F -8.2 °F -5.8 °F 45% 30.26 in 10.0 mi NW 26.5 mph 33.4 mph N/A   Clear
4:54 PM 10.4 °F -10.7 °F -7.6 °F 44% 30.29 in 10.0 mi NW 26.5 mph 29.9 mph N/A   Clear
5:14 PM 8.6 °F -11.4 °F -7.6 °F 48% 30.30 in 10.0 mi NW 21.9 mph 29.9 mph N/A   Clear
5:34 PM 8.6 °F -11.0 °F -7.6 °F 48% 30.32 in 10.0 mi NW 20.7 mph 25.3 mph N/A   Clear
5:54 PM 6.8 °F -11.3 °F -7.6 °F 52% 30.33 in 10.0 mi NW 16.1 mph - N/A   Clear
6:14 PM 6.8 °F -12.4 °F -7.6 °F 52% 30.35 in 10.0 mi NW 18.4 mph 24.2 mph N/A   Clear
6:34 PM 6.8 °F -11.3 °F -9.4 °F 48% 30.36 in 10.0 mi NW 16.1 mph - N/A   Clear
6:54 PM 6.8 °F -10.7 °F -9.4 °F 48% 30.37 in 10.0 mi NNW 15.0 mph 23.0 mph N/A   Clear
7:14 PM 6.8 °F -13.8 °F -13.0 °F 40% 30.38 in 10.0 mi NNW 21.9 mph 25.3 mph N/A   Clear
7:33 PM 5.0 °F -14.2 °F -13.0 °F 43% 30.39 in 10.0 mi NNW 17.3 mph 23.0 mph N/A   Clear
7:53 PM 5.0 °F -15.7 °F -14.8 °F 40% 30.41 in 10.0 mi NNW 20.7 mph - N/A   Clear
8:14 PM 3.2 °F -15.9 °F -14.8 °F 43% 30.42 in 10.0 mi NNW 16.1 mph - N/A   Clear
8:33 PM 3.2 °F -15.3 °F -14.8 °F 43% 30.43 in 10.0 mi NNW 15.0 mph - N/A   Clear
8:54 PM 3.2 °F -15.3 °F -14.8 °F 43% 30.44 in 10.0 mi North 15.0 mph 19.6 mph N/A   Clear
9:13 PM 3.2 °F -14.6 °F -16.6 °F 39% 30.45 in 10.0 mi North 13.8 mph - N/A   Clear
9:33 PM 3.2 °F -14.6 °F -16.6 °F 39% 30.46 in 10.0 mi North 13.8 mph 18.4 mph N/A   Clear
9:53 PM 1.4 °F -16.1 °F -16.6 °F 43% 30.47 in 10.0 mi North 12.7 mph - N/A   Clear
10:14 PM 1.4 °F -15.3 °F -16.6 °F 43% 30.47 in 10.0 mi North 11.5 mph - N/A   Clear
10:33 PM 1.4 °F -17.6 °F -16.6 °F 43% 30.49 in 10.0 mi North 15.0 mph - N/A   Clear
10:53 PM 1.4 °F -15.3 °F -18.4 °F 39% 30.49 in 10.0 mi North 11.5 mph 18.4 mph N/A   Clear
11:13 PM 1.4 °F -15.3 °F -18.4 °F 39% 30.51 in 10.0 mi North 11.5 mph 17.3 mph N/A   Clear
11:34 PM 1.4 °F -14.5 °F -18.4 °F 39% 30.52 in 10.0 mi NNE 10.4 mph - N/A   Clear
11:53 PM -0.4 °F -14.7 °F -18.4 °F 43% 30.54 in 10.0 mi North 8.1 mph - N/A   Clear